Marshall, MI

9:31 AM EDT on May 29, 2017 (GMT -0400)
Brooks

Weather History for KRMY - June, 2013

Change the Weather History Date:

Thursday, June 20, 2013

  Actual Average (KBTL) Record (KBTL)
Temperature  
Mean Temperature 66 °F -  
Max Temperature 80 °F 78 °F 94 °F (2012)
Min Temperature 53 °F 57 °F 44 °F (2004)
Cooling Degree Days 2    
Growing Degree Days 16 (Base 50)    
Moisture  
Dew Point 52 °F    
Average Humidity 59    
Maximum Humidity 83    
Minimum Humidity 32    
Precipitation  
Precipitation 0.00 in - - ()
Sea Level Pressure  
Sea Level Pressure 30.17 in    
Wind  
Wind Speed 3 mph (SSW)    
Max Wind Speed 8 mph    
Max Gust Speed -    
Visibility 10 miles    
Events      
Averages and records for this station are not official NWS values.
T = Trace of Precipitation, MM = Missing Value Source: NWS Daily Summary

Daily Weather History Graph

Daily Weather History Graph

Search for Another Location

Airport or City:

Trip Planner

Search our weather history database for the weather conditions in past years. The results will help you decide how hot, cold, wet, or windy it might be!

Date:

Astronomy

Jun. 20, 2013 Rise Set
Actual Time 6:03 AM EDT 9:19 PM EDT
Civil Twilight 5:28 AM EDT 9:54 PM EDT
Nautical Twilight 4:43 AM EDT 10:39 PM EDT
Astronomical Twilight 3:49 AM EDT 11:33 PM EDT
Moon 6:19 PM EDT (6/20) 3:31 AM EDT (6/20)
Length of Visible Light 16h 25m
Length of Day
15h 16m
Waxing Gibbous, 89% of the Moon is Illuminated
Jun 20
Waxing Gibbous
Jun 23
Full
Jun 30
Last Quarter
Jul 8
New
Jul 15
First Quarter

Hourly Weather History & Observations

Time (EDT) Temp. Dew Point Humidity Pressure Visibility Wind Dir Wind Speed Gust Speed Precip Events Conditions
12:15 AM 60.8 °F 51.8 °F 72% 30.14 in 10.0 mi SE 5.8 mph - N/A   Clear
12:35 AM 60.8 °F 50.0 °F 68% 30.14 in 10.0 mi SSE 4.6 mph - N/A   Clear
12:55 AM 60.8 °F 50.0 °F 68% 30.15 in 10.0 mi SSE 3.5 mph - N/A   Clear
1:15 AM 59.0 °F 50.0 °F 72% 30.14 in 10.0 mi SE 3.5 mph - N/A   Clear
1:35 AM 59.0 °F 51.8 °F 77% 30.15 in 10.0 mi SSE 2.3 mph - N/A   Clear
1:55 AM 57.2 °F 50.0 °F 77% 30.15 in 10.0 mi SSE 2.3 mph - N/A   Clear
2:15 AM 57.2 °F 50.0 °F 77% 30.15 in 10.0 mi SSE 3.5 mph - N/A   Clear
2:35 AM 57.2 °F 48.2 °F 72% 30.15 in 10.0 mi SSE 4.6 mph - N/A   Clear
2:55 AM 57.2 °F 48.2 °F 72% 30.15 in 10.0 mi SSE 3.5 mph - N/A   Clear
3:15 AM 57.2 °F 48.2 °F 72% 30.16 in 10.0 mi SE 2.3 mph - N/A   Clear
3:35 AM 55.4 °F 48.2 °F 77% 30.16 in 10.0 mi SSE 1.2 mph - N/A   Clear
3:55 AM 55.4 °F 48.2 °F 77% 30.16 in 10.0 mi SSE 1.2 mph - N/A   Clear
4:15 AM 53.6 °F 48.2 °F 82% 30.16 in 10.0 mi South 1.2 mph - N/A   Clear
4:35 AM 55.4 °F 48.2 °F 77% 30.16 in 10.0 mi South 1.2 mph - N/A   Clear
4:55 AM 55.4 °F 48.2 °F 77% 30.17 in 10.0 mi SSW 1.2 mph - N/A   Clear
5:15 AM 55.4 °F 48.2 °F 77% 30.17 in 10.0 mi South 1.2 mph - N/A   Clear
5:35 AM 55.4 °F 48.2 °F 77% 30.17 in 10.0 mi South 2.3 mph - N/A   Clear
5:55 AM 55.4 °F 48.2 °F 77% 30.18 in 10.0 mi South 1.2 mph - N/A   Clear
6:15 AM 53.6 °F 48.2 °F 82% 30.18 in 10.0 mi Calm Calm - N/A   Clear
6:35 AM 53.6 °F 48.2 °F 82% 30.18 in 10.0 mi ESE 2.3 mph - N/A   Clear
6:55 AM 53.6 °F 48.2 °F 82% 30.18 in 10.0 mi SE 1.2 mph - N/A   Clear
7:15 AM 55.4 °F 50.0 °F 82% 30.18 in 10.0 mi SSE 1.2 mph - N/A   Clear
7:35 AM 57.2 °F 50.0 °F 77% 30.19 in 10.0 mi South 1.2 mph - N/A   Clear
7:55 AM 60.8 °F 50.0 °F 68% 30.19 in 10.0 mi South 2.3 mph - N/A   Clear
8:15 AM 62.6 °F 51.8 °F 68% 30.19 in 10.0 mi South 3.5 mph - N/A   Clear
8:35 AM 64.4 °F 51.8 °F 64% 30.20 in 10.0 mi South 2.3 mph - N/A   Clear
8:55 AM 66.2 °F 53.6 °F 64% 30.21 in 10.0 mi South 4.6 mph - N/A   Clear
9:15 AM 66.2 °F 53.6 °F 64% 30.21 in 10.0 mi South 5.8 mph - N/A   Clear
9:35 AM 68.0 °F 53.6 °F 60% 30.20 in 10.0 mi SSW 3.5 mph - N/A   Clear
9:55 AM 69.8 °F 53.6 °F 56% 30.20 in 10.0 mi SW 4.6 mph - N/A   Clear
10:15 AM 71.6 °F 53.6 °F 53% 30.20 in 10.0 mi SW 4.6 mph - N/A   Clear
10:35 AM 71.6 °F 53.6 °F 53% 30.20 in 10.0 mi SW 3.5 mph - N/A   Clear
10:55 AM 73.4 °F 53.6 °F 50% 30.20 in 10.0 mi WSW 2.3 mph - N/A   Clear
11:15 AM 75.2 °F 53.6 °F 47% 30.20 in 10.0 mi WNW 8.1 mph - N/A   Scattered Clouds
11:35 AM 75.2 °F 50.0 °F 41% 30.20 in 10.0 mi West 8.1 mph - N/A   Clear
11:55 AM 75.2 °F 51.8 °F 44% 30.20 in 10.0 mi WSW 8.1 mph - N/A   Clear
12:15 PM 77.0 °F 51.8 °F 41% 30.20 in 10.0 mi WNW 6.9 mph - N/A   Clear
12:35 PM 77.0 °F 50.0 °F 39% 30.20 in 10.0 mi SW 3.5 mph - N/A   Clear
12:55 PM 78.8 °F 51.8 °F 39% 30.20 in 10.0 mi WNW 1.2 mph - N/A   Scattered Clouds
1:15 PM 78.8 °F 53.6 °F 42% 30.20 in 10.0 mi NW 1.2 mph - N/A   Scattered Clouds
1:35 PM 78.8 °F 51.8 °F 39% 30.21 in 10.0 mi NW 5.8 mph - N/A   Scattered Clouds
1:55 PM 78.8 °F 51.8 °F 39% 30.20 in 10.0 mi SW 3.5 mph - N/A   Scattered Clouds
2:15 PM 78.8 °F 50.0 °F 36% 30.19 in 10.0 mi North 2.3 mph - N/A   Scattered Clouds
2:35 PM 80.6 °F 50.0 °F 34% 30.20 in 10.0 mi WNW 4.6 mph - N/A   Scattered Clouds
2:55 PM 80.6 °F 51.8 °F 37% 30.19 in 10.0 mi NNE 2.3 mph - N/A   Scattered Clouds
3:15 PM 80.6 °F 48.2 °F 32% 30.19 in 10.0 mi West 3.5 mph - N/A   Scattered Clouds
3:35 PM 78.8 °F 48.2 °F 34% 30.18 in 10.0 mi WNW 1.2 mph - N/A   Clear
3:55 PM 80.6 °F 51.8 °F 37% 30.18 in 10.0 mi North 2.3 mph - N/A   Scattered Clouds
4:15 PM 80.6 °F 51.8 °F 37% 30.18 in 10.0 mi NW 6.9 mph - N/A   Clear
4:35 PM 78.8 °F 50.0 °F 36% 30.18 in 10.0 mi NE 1.2 mph - N/A   Clear
4:55 PM 78.8 °F 50.0 °F 36% 30.17 in 10.0 mi ESE 1.2 mph - N/A   Scattered Clouds
5:15 PM 80.6 °F 51.8 °F 37% 30.17 in 10.0 mi SW 3.5 mph - N/A   Clear
5:35 PM 80.6 °F 51.8 °F 37% 30.16 in 10.0 mi ESE 3.5 mph - N/A   Clear
5:55 PM 80.6 °F 51.8 °F 37% 30.15 in 10.0 mi South 3.5 mph - N/A   Clear
6:15 PM 80.6 °F 50.0 °F 34% 30.15 in 10.0 mi West 1.2 mph - N/A   Clear
6:35 PM 80.6 °F 51.8 °F 37% 30.15 in 10.0 mi West 1.2 mph - N/A   Clear
6:55 PM 80.6 °F 51.8 °F 37% 30.15 in 10.0 mi Calm Calm - N/A   Clear
7:15 PM 80.6 °F 51.8 °F 37% 30.15 in 10.0 mi Calm Calm - N/A   Clear
7:35 PM 80.6 °F 51.8 °F 37% 30.15 in 10.0 mi WSW 1.2 mph - N/A   Clear
7:55 PM 78.8 °F 51.8 °F 39% 30.15 in 10.0 mi Calm Calm - N/A   Clear
8:15 PM 78.8 °F 55.4 °F 44% 30.15 in 10.0 mi South 1.2 mph - N/A   Scattered Clouds
8:35 PM 77.0 °F 57.2 °F 50% 30.15 in 10.0 mi South 1.2 mph - N/A   Scattered Clouds
8:55 PM 73.4 °F 57.2 °F 57% 30.15 in 10.0 mi Calm Calm - N/A   Clear
9:15 PM 71.6 °F 55.4 °F 57% 30.16 in 10.0 mi East 1.2 mph - N/A   Clear
9:35 PM 69.8 °F 59.0 °F 68% 30.15 in 10.0 mi SE 1.2 mph - N/A   Clear
9:55 PM 68.0 °F 59.0 °F 73% 30.16 in 10.0 mi Calm Calm - N/A   Clear
10:15 PM 66.2 °F 60.8 °F 83% 30.17 in 10.0 mi Calm Calm - N/A   Clear
10:22 PM 67.8 °F 58.6 °F 72% 30.17 in 10.0 mi Calm Calm - N/A   Clear
10:34 PM 66.7 °F 58.8 °F 76% 30.17 in 10.0 mi Calm Calm - N/A   Clear
10:54 PM 65.7 °F 59.5 °F 81% 30.18 in 10.0 mi Calm Calm - N/A   Clear
11:14 PM 66.0 °F 59.9 °F 81% 30.18 in 10.0 mi Calm Calm - N/A   Clear
11:34 PM 64.9 °F 59.7 °F 83% 30.18 in 10.0 mi Calm Calm - N/A   Clear
11:54 PM 64.8 °F 59.5 °F 83% 30.19 in 10.0 mi Calm Calm - N/A   Clear